FW8918 Weather Reports


Display with metric or nautical units.
time (UTC)temp
F
wind
direction
speed
MPH
gust
MPH
rain 1hr
in
rain 24hr
in
rain mn
in
humidity
%
barometer
mb
20260506090028 52 64 3.0 8.0 0.00 0.00 0.00 63 1012.6
20260506084530 52 62 1.0 6.0 0.00 0.00 0.00 64 1012.5
20260506083031 52 98 1.0 8.0 0.00 0.00 0.00 64 1012.6
20260506081532 51 62 3.0 7.0 0.00 0.00 0.00 64 1012.4
20260506073033 50 68 4.0 7.0 0.00 0.00 0.00 67 1012.4
20260506071534 49 46 2.0 8.0 0.00 0.00 0.00 71 1012.2
20260506061537 44 49 2.0 6.0 0.00 0.00 0.00 83 1012.2
20260506044530 38 51 2.0 5.0 0.00 0.00 0.00 89 1012.2
20260506043030 37 45 2.0 5.0 0.00 0.00 0.00 89 1012.2
20260506041537 37 50 3.0 5.0 0.00 0.00 0.00 89 1012.2
20260506040031 37 25 2.0 4.0 0.00 0.00 0.00 89 1012.3
20260506034530 36 58 1.0 4.0 0.00 0.00 0.00 89 1012.4
20260506033028 37 50 2.0 5.0 0.00 0.00 0.00 89 1012.5
20260506031537 37 46 1.0 3.0 0.00 0.00 0.00 88 1012.6
20260506030027 37 55 1.0 3.0 0.00 0.00 0.00 88 1012.8
20260506024539 38 49 2.0 5.0 0.00 0.00 0.00 88 1013.0
20260506023032 38 57 1.0 4.0 0.00 0.00 0.00 88 1013.0
20260506021531 38 59 1.0 5.0 0.00 0.00 0.00 88 1013.0
20260506020028 38 60 1.0 3.0 0.00 0.00 0.00 87 1013.0
20260506014530 38 58 2.0 6.0 0.00 0.00 0.00 87 1013.0
20260506013031 38 52 2.0 5.0 0.00 0.00 0.00 87 1012.8
20260506011557 38 45 2.0 7.0 0.00 0.00 0.00 87 1012.9
20260506010031 39 47 2.0 6.0 0.00 0.00 0.00 86 1012.6
20260506004532 39 53 3.0 7.0 0.00 0.00 0.00 85 1012.5
20260506003030 40 49 2.0 6.0 0.00 0.00 0.00 85 1012.6
20260506001528 40 44 2.0 5.0 0.00 0.00 0.00 86 1012.6
20260506000045 40 1 2.0 5.0 0.00 0.00 0.00 85 1012.7
20260505234541 40 58 1.0 4.0 0.00 0.00 0.00 85 1012.9
20260505233033 40 67 2.0 6.0 0.00 0.00 0.00 85 1013.0
20260505231532 40 56 2.0 4.0 0.00 0.00 0.00 84 1013.1
20260505230050 41 57 2.0 5.0 0.00 0.00 0.00 84 1013.0
20260505224537 41 52 1.0 5.0 0.00 0.00 0.00 84 1013.1
20260505223029 41 45 1.0 3.0 0.00 0.00 0.00 85 1013.2
20260505221532 41 55 2.0 6.0 0.00 0.00 0.00 85 1013.2
20260505220031 42 66 1.0 4.0 0.00 0.00 0.00 84 1013.3
20260505214531 42 62 1.0 6.0 0.00 0.00 0.00 84 1013.3
20260505213030 42 79 1.0 4.0 0.00 0.00 0.00 84 1013.3
20260505211532 43 14 1.0 4.0 0.00 0.00 0.00 84 1013.2
20260505210031 43 25 0.0 2.0 0.00 0.00 0.00 83 1013.2
20260505204544 44 58 1.0 4.0 0.00 0.00 0.00 83 1013.2
20260505203028 44 63 0.0 3.0 0.00 0.00 0.00 83 1013.1
20260505201531 45 67 1.0 3.0 0.00 0.00 0.00 83 1013.1
20260505200030 45 0 1.0 7.0 0.00 0.00 0.00 82 1013.1
20260505194536 46 65 1.0 5.0 0.00 0.00 0.00 82 1012.9
20260505193106 46 53 1.0 6.0 0.00 0.00 0.00 80 1013.0
20260505191530 47 1 1.0 6.0 0.00 0.00 0.00 79 1012.8
20260505190035 48 38 1.0 5.0 0.00 0.00 0.00 77 1012.8
20260505184533 49 24 1.0 5.0 0.00 0.00 0.00 75 1012.7
20260505183028 50 327 1.0 7.0 0.00 0.00 0.00 73 1012.6
20260505181531 51 21 3.0 7.0 0.00 0.00 0.00 71 1012.7
20260505180038 52 352 2.0 7.0 0.00 0.00 0.00 71 1012.6
20260505174531 52 359 2.0 7.0 0.00 0.00 0.00 68 1012.4
20260505173029 53 35 2.0 9.0 0.00 0.00 0.00 68 1012.5
20260505171529 53 223 2.0 8.0 0.00 0.00 0.00 67 1012.5
20260505170028 53 53 2.0 10.0 0.00 0.00 0.00 67 1012.7
20260505164529 54 341 3.0 8.0 0.00 0.00 0.00 67 1012.6
20260505163028 54 340 3.0 9.0 0.00 0.00 0.00 66 1012.6
20260505161529 55 335 3.0 9.0 0.00 0.00 0.00 63 1012.5
20260505153027 55 294 3.0 9.0 0.00 0.00 0.00 61 1012.8
20260505151534 56 252 3.0 11.0 0.00 0.00 0.00 61 1012.7
20260505124540 56 331 3.0 9.0 0.00 0.00 0.00 65 1013.0
20260505123030 55 315 3.0 10.0 0.00 0.00 0.00 64 1013.0
20260505121554 55 0 2.0 8.0 0.00 0.00 0.00 66 1012.9
20260505120027 55 23 4.0 9.0 0.00 0.00 0.00 66 1012.9
20260505114533 56 232 4.0 9.0 0.00 0.00 0.00 65 1012.8
20260505113031 55 296 4.0 8.0 0.00 0.00 0.00 66 1012.9
20260505111536 54 44 3.0 9.0 0.00 0.00 0.00 66 1013.0
20260505101528 52 245 2.0 8.0 0.00 0.00 0.00 74 1013.1
20260505100036 53 281 3.0 6.0 0.00 0.00 0.00 71 1013.2
20260505094530 53 305 1.0 5.0 0.00 0.00 0.00 66 1013.1
20260505093031 53 19 1.0 6.0 0.00 0.00 0.00 69 1013.1
20260505091535 53 315 3.0 7.0 0.00 0.00 0.00 68 1013.2